Location: Unspecified
(0.0000°N, 0.0000°E)
Time: 23:40:58

Vanguard 2 - Pass Details

Date: 12 December 2017
Orbit: 553 x 2939 km, 32.9° (Epoch: 22 March)

Event Time Altitude Azimuth Distance (km) Brightness Sun altitude
Rises 23:17:35 0° 312° (NW) 3,095 - -65.2°
Reaches altitude 10° 23:19:35 10° 315° (NW) 2,342 - -65.4°
Maximum altitude 23:25:01 67° 38° (NE) 1,137 - -65.8°
Drops below altitude 10° 23:34:06 10° 119° (ESE) 3,819 - -66.4°
Exits shadow 23:37:50 - 121° (ESE) 5,090 11.8 -66.5°
Sets 23:38:13 0° 121° (ESE) 5,217 11.9 -66.5°
